This is the latest recevied weather packets stored in our database for station/object DL6MAA-11. If no packets are shown the sender has not sent any weather packets the latest 10 day(s).
| Time | Temp. | Humidity | Pressure | Rain* | Wind** | Luminosity | Snow |
|---|---|---|---|---|---|---|---|
| 1777924633 | 15° C | 69% | 1010.5 hPa | 0.25 mm | - | 0 W/m² | - |
| 1777924314 | 15° C | 69% | 1010.5 hPa | 0.25 mm | - | 0 W/m² | - |
| 1777924032 | 15° C | 68% | 1010.5 hPa | 0.25 mm | - | 0 W/m² | - |
| 1777923717 | 15.56° C | 67% | 1010.7 hPa | 0.25 mm | - | 0 W/m² | - |
| 1777923418 | 15.56° C | 67% | 1010.7 hPa | 0.25 mm | - | 0 W/m² | - |
| 1777923124 | 15.56° C | 67% | 1010.7 hPa | 0.25 mm | - | 0 W/m² | - |
| 1777922824 | 16.11° C | 67% | 1010.6 hPa | 0.25 mm | - | 0 W/m² | - |
| 1777922516 | 16.11° C | 66% | 1010.6 hPa | 0.25 mm | - | 0 W/m² | - |
| 1777922222 | 16.67° C | 66% | 1010.6 hPa | 0 mm | - | 0 W/m² | - |
| 1777921927 | 16.67° C | 65% | 1011.1 hPa | 0 mm | - | 0 W/m² | - |
| 1777921617 | 17.22° C | 63% | 1011.1 hPa | 0 mm | - | 0 W/m² | - |
| 1777921316 | 17.22° C | 63% | 1011.1 hPa | 0 mm | - | 0 W/m² | - |
| 1777921022 | 17.78° C | 62% | 1010.6 hPa | 0 mm | - | 0 W/m² | - |
| 1777920712 | 17.78° C | 60% | 1010.6 hPa | 0 mm | - | 0 W/m² | - |
| 1777920419 | 18.33° C | 60% | 1010.6 hPa | 0 mm | - | 0 W/m² | - |
| 1777920124 | 18.33° C | 58% | 1009.7 hPa | 0 mm | - | 0 W/m² | - |
| 1777919833 | 18.89° C | 56% | 1009.7 hPa | 0 mm | - | 0 W/m² | - |
| 1777919523 | 19.44° C | 53% | 1009.7 hPa | 0 mm | - | 0 W/m² | - |
| 1777919216 | 20° C | 52% | 1009.3 hPa | 0 mm | - | 0 W/m² | - |
| 1777918921 | 20° C | 52% | 1009.3 hPa | 0 mm | - | 5 W/m² | - |
| 1777918618 | 20.56° C | 48% | 1009.3 hPa | 0 mm | - | 7 W/m² | - |
| 1777918321 | 20.56° C | 47% | 1008.5 hPa | 0 mm | - | 5 W/m² | - |
| 1777918024 | 20.56° C | 45% | 1008.5 hPa | 0 mm | - | 9 W/m² | - |
| 1777917722 | 20.56° C | 45% | 1008.5 hPa | 0 mm | - | 11 W/m² | - |
| 1777917430 | 20.56° C | 45% | 1008.4 hPa | 0 mm | - | 14 W/m² | - |
* Rain since midnight (hover to see other rain measurements)
** Current wind speed in m/s (hover to see current wind gust speed)